User: anonymous   Login
Location: *
(17.3280°S, 114.7300°W)
Time: 18:58:55
(UTC+00:00)
Language:

NOSS 3-4 (C) - Orbit

View from above orbital plane
View from above orbital plane
View from above satellite
View from above satellite

Ground track
Ground track

The orbit data is extracted from the following two-line orbital elements,

1 31708U 07027C   20293.73377876 0.00000000  00000-0  00000-0 0    02
2 31708  63.3984 210.0305 0293455  19.5095 340.4905 13.40807124    07
Epoch (UTC): 19 October 2020 17:36:38
Eccentricity: 0.0293455
inclination: 63.3984°
perigee height: 886 km
apogee height: 1326 km
right ascension of ascending node: 210.0305°
argument of perigee: 19.5095°
revolutions per day: 13.40807124
mean anomaly at epoch: 340.4905°
orbit number at epoch: 0

The dashed part of the orbit path shows where the satellite is in the earth's shadow,  

DLR